Showing default

EXPLORER 25 (INJUN-4), 932

Orbit data source: Space-Track

EXPLORER 25 (INJUN-4), 932 is a payload satellite owned by NASA LaRC (US) in LEO that was launched on Sat, 21 Nov 1964 UTC via an SCOUT X-4 launch vehicle from the Air Force Western Test Range (AFWTR). Payload-class satellites include a variety of spacecraft equipped with specific instruments for various scientific and technological missions. These include communications satellites like Starlink; space stations such as the ISS; scientific satellites like the Hubble; Earth observation satellites from companies like Planet Labs, Umbra, and HawkEye 360; GPS; miniature CubeSats for education and research; and military/defense satellites.

Loading next visibility...
Identifier
932, 1964-076B
Orbit
LEO
Last TLE update
13 hours ago
Origin
Manufacturer
BENDX/UIA
Mission
Civil Science
Bus & Motor
BENDIX UTILITY, Unknown motor
Mass
41 kg wet, 41 kg dry
Launch date (UTC)
1964-11-21 (60 years ago)
Launch vehicle
SCOUT X-4
Launch site
Air Force Western Test Range (AFWTR)
Object type
Payload
Rocket body
Debris
Shape & HBR
Poly, 0.6 m
Radar Cross Section
0.411 m², Medium (>0.1 m² and < 1m²)

Expand to show TLE details & history

TLE from 13 hours ago
0 EXPLORER 25 (INJUN-4)
1 00932U 64076B   25128.65870109  .00001162  00000-0  40307-3 0  9998
2 00932  81.3401 329.6938 1121028 105.5220 267.2297 12.66707786767907
Epoch: 2025-05-08T15:48Z
Definitive object data (Epoch: 2025-05-08T15:48:31.774Z)
Latitude
-0.00005°
Longitude
-134.16463°
Altitude
1,536.187 km
Speed
7.035 km/s
True Right ascension
21h 58m 46s
True Declination
0° 00' 00"
Sunlit
Object was in daylight at TLE epoch
Visualization TLE readout
Latitude
28.68°
Longitude
-129.84004°
Altitude
1,088.139 km
Speed
7.456 km/s
Apparent Right ascension
23h 34m 56s
Apparent Declination
-2° 44' 49"
Sunlit
Object is in daylight
Visualization observer readout
Local Sidereal Time
13:22:17
Azimuth
40.118° NE
Elevation
-45.59°
Doppler factor
1
Orbital elements
Apogee altitude
2,263.827 km
Perigee altitude
521.563 km
Semi-major axis
7,770.832 km
Eccentricity
0.1121028
Inclination
81.3401°
RAAN
329.6938°
Arg. of periapsis
105.522°
True anomaly
254.58824°
Mean anomaly
267.2297°
Eccentric anomaly
260.88774°
Mean motion
3.16841 °/min
BSTAR
0.00040307
Orbital period
113.62 mins
Loading maneuver chart data...
Loading SW <> Apogee altitude chart data...
Loading historical data...
Loading historical data...
Loading historical data...
Loading historical data...
Loading historical data...
Loading historical data...
Loading historical data...

EXPLORER 25 (INJUN-4) Visibility forecast

Observer location: undefined°, undefined°

Span
Click to sort rows by Start time (UTC) header in descending order
Start Az.
Max El. time (UTC)
Max El. Az.
Max El.
End time (UTC)
End Az.
6 mins2025-05-09 12:47:39.367Z126.852° SE2025-05-09 12:50:39.367Z98.488° ESE17.252°2025-05-09 12:53:39.367Z61.466° ENE
9 mins2025-05-09 14:40:39.367Z209.758° SW2025-05-09 14:45:39.367Z274.274° WNW37.396°2025-05-09 14:49:39.367Z351.234° N
6 mins2025-05-10 00:37:39.367Z27.659° NE2025-05-10 00:39:39.367Z81.794° E31.87°2025-05-10 00:43:39.367Z144.927° SSE
|